1486314000.49,4388,11.0,72278.0,-9.65,-39.15,-39.35,0,*6F
1486314001.71,4389,11.0,72272.5,-9.65,-39.47,-39.47,0,*6C
1486314002.92,4390,11.0,72274.5,-9.65,-39.35,-39.35,0,*64
1486314004.16,4391,11.0,72276.8,-9.67,-39.53,-39.53,0,*67
1486314005.39,4392,11.0,72272.8,-9.67,-39.53,-39.53,0,*64
1486314006.64,4393,11.0,72272.5,-9.67,-39.59,-39.41,0,*6C
1486314007.88,4394,11.0,72276.0,-9.67,-39.53,-39.53,0,*62
1486314009.1,4395,11.0,72272.5,-9.65,-39.47,-39.47,0,*61
1486314010.34,4396,11.0,72272.3,-9.67,-39.53,-39.41,0,*63
1486314011.59,4397,11.0,72272.5,-9.71,-39.59,-39.53,0,*6C
1486314012.82,4398,11.0,72272.5,-9.65,-39.53,-39.47,0,*69
1486314014.06,4399,11.0,72270.3,-9.65,-39.53,-39.47,0,*68
1486314015.28,4400,11.0,72272.0,-9.65,-39.47,-39.35,0,*6F
1486314016.52,4401,11.0,72272.0,-9.67,-39.59,-39.53,0,*63
1486314017.76,4402,11.0,72272.5,-9.67,-39.53,-39.41,0,*69
1486314019.01,4403,11.0,72274.0,-9.67,-39.59,-39.41,0,*62
1486314020.25,4404,11.0,72274.0,-9.71,-39.53,-39.41,0,*68
1486314021.5,4405,11.0,72268.8,-9.71,-39.59,-39.53,0,*60
1486314022.75,4406,11.0,72268.5,-9.67,-39.59,-39.41,0,*67
1486314024.0,4407,11.0,72278.5,-9.67,-39.59,-39.53,0,*65
1486314025.24,4408,11.0,72272.0,-9.71,-39.59,-39.53,0,*6D
1486314026.5,4409,11.0,72274.5,-9.67,-39.79,-39.59,0,*63
1486314027.75,4410,11.0,72276.8,-9.67,-39.79,-39.71,0,*61
1486314029.01,4411,11.0,72282.0,-9.71,-39.79,-39.71,0,*67
1486314030.26,4412,11.0,72278.0,-9.71,-39.71,-39.79,0,*64
1486314031.52,4413,11.0,72272.5,-9.67,-39.79,-39.71,0,*62
1486314032.76,4414,11.0,72278.0,-9.71,-39.59,-39.53,0,*60
1486314034.01,4415,11.0,72276.3,-9.67,-39.59,-39.53,0,*66
1486314035.26,4416,11.0,72272.3,-9.67,-39.71,-39.71,0,*6F
1486314036.51,4417,11.0,72274.3,-9.71,-39.71,-39.71,0,*69
1486314037.76,4418,11.0,72268.0,-9.71,-39.41,-39.53,0,*65
1486314039.01,4419,11.0,72272.3,-9.71,-39.71,-39.71,0,*67
1486314040.26,4420,11.0,72274.8,-9.71,-39.71,-39.71,0,*6D
1486314041.5,4421,11.0,72274.5,-9.71,-39.71,-39.53,0,*6C
1486314042.75,4422,11.0,72274.8,-9.71,-39.59,-39.53,0,*65
1486314044.0,4423,11.0,72274.8,-9.71,-39.59,-39.53,0,*64
1486314045.24,4424,11.0,72278.5,-9.71,-39.53,-39.53,0,*69
1486314046.49,4425,11.0,72276.0,-9.71,-39.59,-39.53,0,*62
1486314047.74,4426,11.0,72272.0,-9.71,-39.59,-39.59,0,*6B
1486314049.0,4427,11.0,72274.8,-9.73,-39.65,-39.79,0,*65
1486314050.24,4428,11.0,72276.5,-9.71,-39.53,-39.59,0,*6F
1486314051.49,4429,11.0,72278.0,-9.71,-39.53,-39.59,0,*6E
1486314052.71,4430,11.0,72272.8,-9.73,-39.65,-39.47,0,*6E
1486314053.95,4431,11.0,72274.3,-9.71,-39.59,-39.41,0,*64
1486314055.18,4432,11.0,72274.0,-9.73,-39.65,-39.65,0,*6C
1486314056.44,4433,11.0,72276.5,-9.73,-39.79,-39.65,0,*60
1486314057.66,4434,11.0,72274.5,-9.73,-39.65,-39.47,0,*6A
1486314058.91,4435,11.0,72276.3,-9.73,-39.59,-39.47,0,*64
1486314060.16,4436,11.0,72276.5,-9.73,-39.65,-39.59,0,*67
1486314061.38,4437,11.0,72280.3,-9.73,-39.65,-39.47,0,*69
1486314062.59,4438,11.0,72276.5,-9.75,-39.65,-39.65,0,*60
1486314063.85,4439,11.0,72280.5,-9.73,-39.79,-39.65,0,*6A
1486314065.11,4440,11.0,72282.8,-9.75,-39.79,-39.79,0,*6F
1486314066.37,4441,11.0,72284.0,-9.73,-39.79,-39.65,0,*65
1486314067.62,4442,11.0,72276.3,-9.73,-39.85,-39.79,0,*68
1486314068.88,4443,11.0,72282.8,-9.75,-39.79,-39.59,0,*6E
1486314070.16,4444,11.0,72282.8,-9.73,-39.79,-39.59,0,*6F
1486314071.42,4445,11.0,72280.5,-9.73,-39.79,-39.65,0,*61
1486314072.65,4446,11.0,72278.0,-9.73,-39.65,-39.65,0,*6F
1486314073.9,4447,11.0,72278.0,-9.73,-39.59,-39.47,0,*61
1486314075.14,4448,11.0,72270.3,-9.73,-39.41,-39.47,0,*67
1486314076.36,4449,11.0,72274.3,-9.73,-39.47,-39.47,0,*60
1486314077.55,4450,11.0,72268.0,-9.75,-39.47,-39.47,0,*6E
1486314078.8,4451,11.0,72274.8,-9.75,-39.41,-39.29,0,*61
1486314080.05,4452,11.0,72274.8,-9.73,-39.47,-39.41,0,*6C
1486314081.31,4453,11.0,72280.5,-9.73,-39.41,-39.41,0,*6B
1486314082.59,4454,11.0,72276.5,-9.73,-39.59,-39.41,0,*65
1486314083.84,4455,11.0,72276.3,-9.73,-39.59,-39.47,0,*62
1486314085.07,4456,11.0,72268.5,-9.75,-39.59,-39.47,0,*67
1486314086.31,4457,11.0,72272.5,-9.73,-39.59,-39.47,0,*60
1486314087.56,4458,11.0,72274.3,-9.73,-39.59,-39.47,0,*6F
1486314088.79,4459,11.0,72276.0,-9.75,-39.59,-39.47,0,*68
1486314090.07,4460,11.0,72274.3,-9.73,-39.59,-39.59,0,*6B
1486314091.33,4461,11.0,72274.8,-9.73,-39.59,-39.65,0,*65
1486314092.53,4462,11.0,72274.3,-9.75,-39.65,-39.47,0,*6F
1486314093.8,4463,11.0,72274.5,-9.73,-39.41,-39.29,0,*66
1486314095.05,4464,11.0,72276.3,-9.73,-39.47,-39.29,0,*67
1486314096.29,4465,11.0,72276.0,-9.73,-39.47,-39.41,0,*68
1486314097.54,4466,11.0,72268.5,-9.73,-39.47,-39.41,0,*6B
1486314098.76,4467,11.0,72278.5,-9.75,-39.47,-39.41,0,*6C
1486314100.0,4468,11.0,72284.5,-9.75,-39.41,-39.41,0,*65
1486314101.25,4469,11.0,72280.8,-9.75,-39.41,-39.41,0,*64
1486314102.47,4470,11.0,72280.3,-9.75,-39.41,-39.47,0,*6A
1486314103.73,4471,11.0,72278.5,-9.73,-39.29,-39.29,0,*6B
1486314104.97,4472,11.0,72274.0,-9.75,-39.29,-39.41,0,*60
1486314106.24,4473,11.0,72278.3,-9.73,-39.29,-39.29,0,*69
1486314107.51,4474,11.0,72280.0,-9.73,-39.41,-39.41,0,*6E
1486314108.7,4475,11.0,72270.8,-9.75,-39.47,-39.47,0,*69
1486314109.96,4476,11.0,72266.3,-9.75,-39.59,-39.59,0,*6A
1486314111.21,4477,11.0,72270.5,-9.73,-39.59,-39.47,0,*62
1486314112.43,4478,11.0,72278.8,-9.75,-39.41,-39.47,0,*62
1486314113.66,4479,11.0,72274.0,-9.75,-39.59,-39.47,0,*6A
1486314114.88,4480,11.0,72276.8,-9.75,-39.47,-39.59,0,*6C
1486314116.17,4481,11.0,72276.5,-9.73,-39.59,-39.59,0,*64
1486314117.38,4482,11.0,72274.5,-9.75,-39.41,-39.47,0,*67
1486314118.65,4483,11.0,72276.3,-9.73,-39.41,-39.41,0,*66
1486314119.88,4484,11.0,72272.0,-9.75,-39.47,-39.41,0,*61
1486314121.07,4485,11.0,72272.3,-9.75,-39.47,-39.47,0,*66
1486314122.29,4486,11.0,72272.5,-9.75,-39.41,-39.47,0,*63
1486314123.54,4487,11.0,72278.0,-9.73,-39.59,-39.47,0,*6D
1486314124.76,4488,11.0,72278.0,-9.75,-39.65,-39.59,0,*64
1486314126.02,4489,11.0,72284.0,-9.75,-39.59,-39.59,0,*6A
1486314127.22,4490,11.0,72280.0,-9.75,-39.47,-39.47,0,*62
1486314128.46,4491,11.0,72280.5,-9.73,-39.47,-39.41,0,*63
1486314129.68,4492,11.0,72282.3,-9.75,-39.47,-39.41,0,*66
1486314130.9,4493,11.0,72278.8,-9.75,-39.41,-39.47,0,*67
1486314132.09,4494,11.0,72284.3,-9.75,-39.47,-39.47,0,*66
1486314133.29,4495,11.0,72276.3,-9.75,-39.47,-39.47,0,*67
1486314134.48,4496,11.0,72270.8,-9.75,-39.65,-39.47,0,*64
1486314135.74,4497,11.0,72270.0,-9.73,-39.65,-39.59,0,*6C
1486314136.97,4498,11.0,72270.3,-9.75,-39.65,-39.59,0,*65
1486314138.22,4499,11.0,72272.0,-9.73,-39.59,-39.47,0,*62
1486314139.41,4500,11.0,72278.3,-9.75,-39.47,-39.47,0,*6A
1486314140.66,4501,11.0,72272.3,-9.73,-39.59,-39.47,0,*62
1486314141.92,4502,11.0,72272.8,-9.75,-39.59,-39.59,0,*68
1486314143.11,4503,11.0,72270.3,-9.75,-39.47,-39.47,0,*69
1486314144.35,4504,11.0,72272.0,-9.73,-39.41,-39.47,0,*6E
1486314145.55,4505,11.0,72270.3,-9.75,-39.47,-39.47,0,*6F
1486314146.74,4506,11.0,72274.8,-9.75,-39.47,-39.47,0,*6C
1486314147.99,4507,11.0,72274.3,-9.73,-39.47,-39.41,0,*6D
1486314149.26,4508,11.0,72280.0,-9.73,-39.41,-39.41,0,*64
1486314150.5,4509,11.0,72276.8,-9.73,-39.59,-39.47,0,*6A
1486314151.72,4510,11.0,72274.0,-9.73,-39.65,-39.47,0,*6D
1486314152.95,4511,11.0,72272.5,-9.75,-39.59,-39.47,0,*65
1486314154.14,4512,11.0,72268.0,-9.75,-39.47,-39.47,0,*69
1486314155.37,4513,11.0,72270.8,-9.75,-39.47,-39.59,0,*67
1486314156.57,4514,11.0,72274.0,-9.75,-39.47,-39.47,0,*6F
1486314157.76,4515,11.0,72272.5,-9.75,-39.47,-39.47,0,*6E
1486314158.99,4516,11.0,72274.0,-9.75,-39.47,-39.59,0,*62
1486314160.22,4517,11.0,72278.5,-9.75,-39.65,-39.59,0,*63
1486314161.47,4518,11.0,72278.5,-9.75,-39.79,-39.59,0,*61
1486314162.75,4519,11.0,72272.8,-9.77,-39.71,-39.53,0,*60
1486314163.99,4520,11.0,72270.8,-9.77,-39.65,-39.65,0,*6A
1486314165.24,4521,11.0,72272.8,-9.79,-39.71,-39.71,0,*65
1486314166.45,4522,11.0,72278.0,-9.75,-39.65,-39.65,0,*6A
1486314167.73,4523,11.0,72270.0,-9.77,-39.71,-39.71,0,*69
1486314168.97,4524,11.0,72274.3,-9.77,-39.65,-39.65,0,*6E
1486314170.2,4525,11.0,72276.5,-9.79,-39.71,-39.65,0,*64
1486314171.48,4526,11.0,72276.3,-9.77,-39.71,-39.53,0,*6C
1486314172.74,4527,11.0,72276.3,-9.77,-39.71,-39.65,0,*68
1486314173.98,4528,11.0,72276.0,-9.79,-39.53,-39.53,0,*6C
1486314175.22,4529,11.0,72270.5,-9.79,-39.53,-39.53,0,*6D
1486314176.47,4530,11.0,72276.3,-9.77,-39.65,-39.53,0,*6E
1486314177.74,4531,11.0,72276.5,-9.77,-39.53,-39.53,0,*6A
1486314178.97,4532,11.0,72270.5,-9.79,-39.53,-39.65,0,*62
1486314180.22,4533,11.0,72272.8,-9.79,-39.71,-39.53,0,*66
1486314181.44,4534,11.0,72272.8,-9.79,-39.65,-39.53,0,*64
1486314182.71,4535,11.0,72276.0,-9.77,-39.53,-39.53,0,*6E
1486314183.98,4536,11.0,72278.8,-9.77,-39.53,-39.53,0,*6D
1486314185.23,4537,11.0,72272.3,-9.77,-39.65,-39.53,0,*69
1486314186.5,4538,11.0,72280.5,-9.77,-39.53,-39.53,0,*63
1486314187.76,4539,11.0,72278.0,-9.77,-39.53,-39.65,0,*67
1486314188.98,4540,11.0,72272.8,-9.79,-39.65,-39.53,0,*67
1486314190.2,4541,11.0,72280.5,-9.79,-39.65,-39.53,0,*66
1486314191.42,4542,11.0,72280.8,-9.79,-39.53,-39.65,0,*65
1486314192.65,4543,11.0,72282.5,-9.79,-39.47,-39.53,0,*64
1486314193.89,4544,11.0,72280.0,-9.79,-39.53,-39.53,0,*66
1486314195.14,4545,11.0,72282.3,-9.77,-39.47,-39.53,0,*6C
1486314196.41,4546,11.0,72282.3,-9.77,-39.53,-39.53,0,*6A
1486314197.63,4547,11.0,72280.5,-9.79,-39.53,-39.65,0,*60
1486314198.86,4548,11.0,72278.8,-9.79,-39.71,-39.65,0,*6F
1486314200.09,4549,11.0,72282.5,-9.79,-39.65,-39.71,0,*6E
1486314201.3,4550,11.0,72282.8,-9.79,-39.65,-39.65,0,*63
1486314202.52,4551,11.0,72280.5,-9.79,-39.65,-39.53,0,*67
1486314203.74,4552,11.0,72278.8,-9.79,-39.65,-39.53,0,*64
1486314204.97,4553,11.0,72276.5,-9.79,-39.71,-39.65,0,*65
1486314206.21,4554,11.0,72276.0,-9.79,-39.71,-39.65,0,*62
1486314207.46,4555,11.0,72276.0,-9.81,-39.71,-39.71,0,*61
1486314208.72,4556,11.0,72280.5,-9.81,-39.71,-39.79,0,*6A
1486314209.97,4557,11.0,72276.5,-9.81,-39.71,-39.59,0,*69
1486314211.22,4558,11.0,72278.0,-9.81,-39.71,-39.71,0,*6C
1486314212.47,4559,11.0,72276.5,-9.81,-39.53,-39.71,0,*6D
1486314213.72,4560,11.0,72270.8,-9.81,-39.71,-39.59,0,*6D
1486314214.98,4561,11.0,72276.0,-9.81,-39.79,-39.59,0,*64
1486314216.23,4562,11.0,72280.0,-9.81,-39.71,-39.59,0,*6F
1486314217.51,4563,11.0,72276.8,-9.83,-39.59,-39.59,0,*66
1486314218.76,4564,11.0,72278.0,-9.81,-39.53,-39.59,0,*69
1486314220.01,4565,11.0,72276.5,-9.81,-39.53,-39.59,0,*68
1486314221.25,4566,11.0,72278.0,-9.81,-39.53,-39.59,0,*6B
1486314222.49,4567,11.0,72274.3,-9.81,-39.53,-39.53,0,*60
1486314223.74,4568,11.0,72278.8,-9.81,-39.41,-39.53,0,*6C
1486314225.0,4569,11.0,72276.8,-9.83,-39.53,-39.53,0,*6C
1486314226.24,4570,11.0,72278.0,-9.83,-39.35,-39.41,0,*67
1486314227.46,4571,11.0,72276.8,-9.81,-39.35,-39.41,0,*64
1486314228.7,4572,11.0,72282.3,-9.81,-39.41,-39.53,0,*67
1486314229.94,4573,11.0,72276.0,-9.81,-39.53,-39.53,0,*65
1486314231.19,4574,11.0,72276.5,-9.81,-39.59,-39.71,0,*68
1486314232.47,4575,11.0,72276.5,-9.83,-39.71,-39.59,0,*6B
1486314233.73,4576,11.0,72274.8,-9.81,-39.71,-39.71,0,*60
1486314235.0,4577,11.0,72278.3,-9.83,-39.71,-39.71,0,*63
1486314236.28,4578,11.0,72278.5,-9.83,-39.71,-39.59,0,*66
1486314237.52,4579,11.0,72278.0,-9.81,-39.53,-39.53,0,*6F
1486314238.76,4580,11.0,72282.0,-9.83,-39.35,-39.41,0,*68
1486314240.02,4581,11.0,72282.5,-9.83,-39.23,-39.41,0,*6E
1486314241.26,4582,11.0,72278.8,-9.83,-39.35,-39.41,0,*6A
1486314242.51,4583,11.0,72282.8,-9.81,-39.23,-39.41,0,*6E
1486314243.75,4584,11.0,72280.5,-9.81,-39.41,-39.53,0,*6E
1486314245.02,4585,11.0,72278.3,-9.83,-39.41,-39.41,0,*6E
1486314246.28,4586,11.0,72274.3,-9.83,-39.41,-39.53,0,*6E
1486314247.5,4587,11.0,72272.3,-9.81,-39.35,-39.53,0,*6E
1486314248.74,4588,11.0,72274.3,-9.81,-39.41,-39.41,0,*61
1486314249.96,4589,11.0,72276.0,-9.81,-39.35,-39.23,0,*67
1486314251.18,4590,11.0,72278.0,-9.81,-39.23,-39.35,0,*6F
1486314252.39,4591,11.0,72272.5,-9.81,-39.35,-39.41,0,*6A
1486314253.61,4592,11.0,72278.0,-9.81,-39.35,-39.41,0,*69
1486314254.85,4593,11.0,72272.3,-9.83,-39.35,-39.53,0,*69
1486314256.09,4594,11.0,72282.3,-9.81,-39.41,-39.53,0,*6F
1486314257.33,4595,11.0,72280.0,-9.81,-39.41,-39.53,0,*6E
1486314258.6,4596,11.0,72280.5,-9.83,-39.41,-39.53,0,*6F
1486314259.84,4597,11.0,72282.8,-9.81,-39.23,-39.41,0,*6B
1486314261.08,4598,11.0,72280.0,-9.81,-39.23,-39.41,0,*64
1486314262.35,4599,11.0,72276.0,-9.83,-39.23,-39.41,0,*67
1486314263.62,4600,11.0,72272.5,-9.83,-39.41,-39.53,0,*63
1486314264.86,4601,11.0,72278.3,-9.81,-39.53,-39.53,0,*63
1486314266.07,4602,11.0,72282.0,-9.81,-39.35,-39.53,0,*60
1486314267.31,4603,11.0,72278.3,-9.81,-39.41,-39.53,0,*62
1486314268.59,4604,11.0,72278.5,-9.83,-39.41,-39.59,0,*6D
1486314269.83,4605,11.0,72276.5,-9.81,-39.53,-39.59,0,*6D
1486314271.1,4606,10.94,72274.8,-9.83,-39.53,-39.59,0,*6C
1486314272.38,4607,11.0,72278.0,-9.83,-39.59,-39.59,0,*67
1486314273.65,4608,11.0,72276.0,-9.83,-39.53,-39.59,0,*62
1486314274.9,4609,11.0,72276.3,-9.81,-39.59,-39.53,0,*61
1486314276.14,4610,11.0,72276.8,-9.81,-39.53,-39.53,0,*63
1486314277.39,4611,11.0,72278.5,-9.81,-39.41,-39.41,0,*62
1486314278.65,4612,11.0,72280.0,-9.83,-39.41,-39.53,0,*60
1486314279.92,4613,11.0,72276.3,-9.83,-39.53,-39.53,0,*62
1486314281.17,4614,11.0,72278.0,-9.81,-39.59,-39.59,0,*67
1486314282.45,4615,11.0,72274.5,-9.83,-39.79,-39.71,0,*6C
1486314283.74,4616,11.0,72276.8,-9.83,-39.59,-39.59,0,*67
1486314285.02,4617,11.0,72274.0,-9.83,-39.59,-39.59,0,*66
1486314286.29,4618,11.0,72276.5,-9.83,-39.71,-39.59,0,*63
1486314287.56,4619,11.0,72280.8,-9.83,-39.53,-39.59,0,*62
1486314288.83,4620,11.0,72280.0,-9.83,-39.53,-39.59,0,*68
1486314290.07,4621,11.0,72282.0,-9.85,-39.59,-39.65,0,*6A
1486314291.34,4622,11.0,72280.3,-9.83,-39.53,-39.59,0,*6A
1486314292.61,4623,11.0,72284.8,-9.83,-39.41,-39.53,0,*62
1486314293.87,4624,11.0,72284.3,-9.83,-39.41,-39.53,0,*65
1486314295.13,4625,11.0,72284.8,-9.83,-39.53,-39.53,0,*67
1486314296.4,4626,11.0,72282.5,-9.83,-39.53,-39.71,0,*64
1486314297.64,4627,11.0,72282.8,-9.83,-39.23,-39.35,0,*62
1486314298.88,4628,11.0,72286.0,-9.83,-39.23,-39.35,0,*6D
1486314300.12,4629,11.0,72280.3,-9.83,-39.15,-39.35,0,*69
1486314301.34,4630,11.0,72280.8,-9.83,-39.35,-39.35,0,*63
1486314302.61,4631,11.0,72278.8,-9.83,-39.15,-39.23,0,*67
1486314303.82,4632,11.0,72278.0,-9.83,-39.35,-39.35,0,*61
1486314305.03,4633,11.0,72276.5,-9.83,-39.35,-39.35,0,*60
1486314306.3,4634,11.0,72280.8,-9.83,-39.23,-39.23,0,*67
1486314307.55,4635,11.0,72274.3,-9.81,-39.15,-39.23,0,*61
1486314308.79,4636,11.0,72278.0,-9.83,-38.97,-39.03,0,*69
1486314310.03,4637,11.0,72282.0,-9.83,-39.03,-38.97,0,*68
1486314311.3,4638,11.0,72274.5,-9.83,-39.03,-39.03,0,*6B
1486314312.51,4639,11.0,72276.5,-9.81,-38.97,-39.15,0,*63
1486314313.77,4640,11.0,72274.8,-9.81,-39.15,-39.15,0,*66
1486314314.99,4641,11.0,72272.8,-9.81,-39.15,-38.97,0,*6C
1486314316.21,4642,11.0,72276.5,-9.81,-38.97,-38.79,0,*64
1486314317.42,4643,11.0,72272.5,-9.81,-39.23,-39.35,0,*62
1486314318.64,4644,11.0,72274.5,-9.81,-39.41,-39.35,0,*61
1486314319.86,4645,11.0,72268.8,-9.81,-39.35,-39.41,0,*60
1486314321.09,4646,11.0,72266.5,-9.79,-39.09,-39.15,0,*6A
1486314322.34,4647,11.0,72262.0,-9.79,-39.15,-39.29,0,*69
1486314323.54,4648,11.0,72264.8,-9.79,-39.09,-38.97,0,*6F
1486314324.76,4649,11.0,72274.0,-9.79,-38.91,-38.97,0,*6E
1486314326.01,4650,11.0,72270.0,-9.77,-38.91,-38.97,0,*68
1486314327.26,4651,11.0,72272.8,-9.79,-38.91,-38.91,0,*61
1486314328.45,4652,11.0,72270.5,-9.79,-38.97,-38.97,0,*62
1486314329.7,4653,11.0,72272.3,-9.79,-39.15,-39.29,0,*6C
1486314330.95,4654,11.0,72270.5,-9.79,-39.29,-39.29,0,*64
1486314332.14,4655,11.0,72276.8,-9.81,-39.35,-39.35,0,*62
1486314333.38,4656,11.0,72276.3,-9.79,-39.29,-39.29,0,*66
1486314334.58,4657,11.0,72274.0,-9.79,-39.09,-38.97,0,*61
1486314335.84,4658,11.0,72274.8,-9.79,-39.15,-39.15,0,*68
1486314337.09,4659,11.0,72274.0,-9.79,-39.15,-39.29,0,*66
1486314338.35,4660,11.0,72272.3,-9.79,-39.15,-39.15,0,*63
1486314339.57,4661,11.0,72268.3,-9.79,-39.09,-39.29,0,*60
1486314340.79,4662,11.0,72276.0,-9.79,-39.15,-39.35,0,*63
1486314342.01,4663,11.0,72278.0,-9.79,-39.35,-39.29,0,*6D
1486314343.23,4664,11.0,72278.5,-9.79,-39.29,-39.35,0,*6A
1486314344.45,4665,11.0,72280.0,-9.79,-39.35,-39.29,0,*6B
1486314345.67,4666,11.0,72278.0,-9.79,-39.35,-39.29,0,*68
1486314346.91,4667,11.0,72280.0,-9.79,-39.29,-39.29,0,*64
1486314348.19,4668,11.0,72278.8,-9.77,-39.29,-39.29,0,*65
1486314349.47,4669,11.0,72276.5,-9.77,-39.15,-39.15,0,*64
1486314350.68,4670,11.0,72274.3,-9.79,-39.09,-39.09,0,*62
1486314351.93,4671,11.0,72276.5,-9.79,-39.15,-39.15,0,*63
1486314353.19,4672,11.0,72274.0,-9.79,-39.15,-39.15,0,*60
1486314354.42,4673,11.0,72270.5,-9.79,-39.09,-39.15,0,*6C
1486314355.65,4674,11.0,72268.0,-9.79,-39.15,-39.09,0,*6B
1486314356.88,4675,11.0,72268.3,-9.79,-39.15,-39.09,0,*6A
1486314358.12,4676,11.0,72266.8,-9.77,-39.09,-39.09,0,*6A
1486314359.34,4677,11.0,72268.5,-9.79,-39.15,-38.97,0,*6E
1486314360.55,4678,11.0,72266.8,-9.79,-39.09,-39.09,0,*6A
1486314361.75,4679,11.0,72270.5,-9.79,-39.09,-38.97,0,*6D
1486314362.99,4680,11.0,72266.3,-9.77,-39.09,-39.09,0,*63
1486314364.26,4681,11.0,72272.5,-9.77,-39.29,-39.15,0,*6D
1486314365.52,4682,11.0,72274.5,-9.77,-39.29,-39.09,0,*63
1486314366.77,4683,11.0,72270.5,-9.77,-39.35,-39.29,0,*6D
1486314368.05,4684,11.0,72272.8,-9.77,-39.15,-39.15,0,*67
1486314369.33,4685,11.0,72270.5,-9.77,-39.29,-39.15,0,*69
1486314370.58,4686,11.0,72268.3,-9.77,-39.35,-39.15,0,*67
1486314371.83,4687,11.0,72274.5,-9.77,-39.29,-39.09,0,*66
1486314373.05,4688,11.0,72272.8,-9.79,-39.29,-38.97,0,*61
1486314374.34,4689,11.0,72272.8,-9.77,-39.15,-38.91,0,*67
1486314375.56,4690,11.0,72272.0,-9.77,-39.35,-38.73,0,*61
1486314376.81,4691,11.0,72276.0,-9.77,-39.35,-38.91,0,*6C
1486314378.03,4692,11.0,72276.8,-9.79,-39.29,-38.73,0,*60
1486314379.24,4693,11.0,72276.0,-9.79,-39.47,-38.55,0,*6D
1486314380.49,4694,11.0,72278.3,-9.77,-39.29,-38.35,0,*6A
1486314381.74,4695,11.0,72280.0,-9.77,-39.29,-38.17,0,*6B
1486314383.02,4696,11.0,72278.5,-9.77,-39.29,-37.93,0,*6B
1486314384.28,4697,11.0,72280.0,-9.77,-39.09,-37.51,0,*66
1486314385.54,4698,11.0,72278.0,-9.77,-38.97,-37.39,0,*61
1486314386.76,4699,11.0,72278.3,-9.77,-38.97,-37.15,0,*6E
1486314388.01,4700,11.0,72280.3,-9.79,-38.91,-36.79,0,*6C
1486314389.24,4701,11.0,72286.0,-9.75,-38.85,-36.13,0,*68
1486314390.49,4702,11.0,72284.3,-9.75,-38.67,-35.83,0,*6D
1486314391.73,4703,11.0,72282.5,-9.75,-38.67,-35.65,0,*64
1486314392.96,4704,11.0,72280.8,-9.75,-38.29,-35.29,0,*61
1486314394.19,4705,11.0,72282.8,-9.75,-38.05,-35.41,0,*60
1486314395.43,4706,11.0,72284.8,-9.73,-37.57,-35.41,0,*6D
1486314396.63,4707,11.0,72280.5,-9.75,-37.27,-35.59,0,*64
1486314397.89,4708,11.0,72288.0,-9.75,-37.09,-35.95,0,*67
1486314399.09,4709,11.0,72278.8,-9.75,-37.15,-36.73,0,*60
1486314400.29,4710,11.0,72276.5,-9.75,-37.45,-37.33,0,*68
1486314401.54,4711,11.0,72280.5,-9.73,-37.69,-37.87,0,*6E
1486314402.78,4712,11.0,72276.0,-9.73,-37.69,-38.05,0,*68
1486314404.01,4713,11.0,72276.8,-9.75,-38.11,-38.43,0,*6D
1486314405.23,4714,11.0,72276.0,-9.73,-38.43,-38.85,0,*61
1486314406.45,4715,11.0,72274.3,-9.75,-38.73,-39.23,0,*68
1486314407.69,4716,11.0,72272.8,-9.75,-38.67,-39.23,0,*6E
1486314408.93,4717,11.0,72272.8,-9.75,-38.91,-39.29,0,*6C
1486314410.13,4718,11.0,72274.0,-9.75,-39.09,-39.47,0,*6B
1486314411.38,4719,11.0,72276.8,-9.75,-39.29,-39.59,0,*67
1486314412.6,4720,11.0,72276.8,-9.75,-39.47,-39.59,0,*65
1486314413.81,4721,11.0,72280.3,-9.75,-39.47,-39.65,0,*6B
1486314415.04,4722,11.0,72276.5,-9.75,-39.59,-39.65,0,*67
1486314416.3,4723,11.0,72274.8,-9.75,-39.59,-39.59,0,*69
1486314417.55,4724,11.0,72276.8,-9.77,-39.29,-39.47,0,*64
1486314418.79,4725,11.0,72276.0,-9.77,-39.29,-39.47,0,*65
1486314420.02,4726,11.0,72278.5,-9.77,-39.47,-39.35,0,*6B
1486314421.24,4727,11.0,72276.3,-9.77,-39.35,-39.47,0,*6A
1486314422.48,4728,11.0,72276.8,-9.77,-39.29,-39.35,0,*6D
1486314423.7,4729,11.0,72278.8,-9.77,-39.35,-39.47,0,*64
1486314424.94,4730,11.0,72276.5,-9.77,-39.29,-39.35,0,*64
1486314426.17,4731,11.0,72278.3,-9.77,-39.47,-39.35,0,*6D
1486314427.39,4732,11.0,72274.0,-9.77,-39.47,-39.47,0,*6B
1486314428.62,4733,11.0,72270.8,-9.77,-39.47,-39.47,0,*6A
1486314429.89,4734,11.0,72274.0,-9.77,-39.53,-39.53,0,*6D
1486314431.14,4735,11.0,72272.5,-9.77,-39.47,-39.53,0,*69
1486314432.4,4736,11.0,72272.8,-9.77,-39.71,-39.65,0,*6A
1486314433.66,4737,11.0,72274.5,-9.77,-39.71,-39.65,0,*6B
1486314434.9,4738,11.0,72278.3,-9.77,-39.65,-39.65,0,*61
1486314436.15,4739,11.0,72278.3,-9.77,-39.65,-39.53,0,*65
1486314437.4,4740,11.0,72274.8,-9.77,-39.47,-39.53,0,*6B
1486314438.62,4741,11.0,72278.0,-9.77,-39.47,-39.47,0,*6F
1486314439.81,4742,11.0,72278.3,-9.79,-39.35,-39.47,0,*67
1486314441.03,4743,11.0,72276.3,-9.77,-39.35,-39.47,0,*68
1486314442.28,4744,11.0,72272.5,-9.77,-39.29,-39.35,0,*67
1486314443.47,4745,11.0,72272.5,-9.79,-38.97,-38.97,0,*65
1486314444.71,4746,11.0,72274.0,-9.77,-39.09,-39.09,0,*68
1486314445.93,4747,11.0,72278.5,-9.77,-38.97,-39.09,0,*6F
1486314447.15,4748,11.0,72276.5,-9.77,-38.97,-38.97,0,*66
1486314448.44,4749,11.0,72276.5,-9.77,-39.15,-39.15,0,*67
1486314449.68,4750,11.0,72272.5,-9.75,-39.23,-39.29,0,*67
1486314450.93,4751,11.0,72270.5,-9.75,-39.23,-39.41,0,*68
1486314452.17,4752,11.0,72274.0,-9.75,-39.23,-39.41,0,*6B
1486314453.41,4753,11.0,72276.8,-9.75,-39.29,-39.41,0,*60
1486314454.65,4754,11.0,72274.8,-9.75,-39.29,-39.29,0,*69
1486314455.9,4755,11.0,72274.5,-9.75,-39.23,-39.29,0,*62
1486314457.12,4756,11.0,72272.5,-9.77,-39.35,-39.35,0,*69
1486314458.31,4757,11.0,72272.8,-9.79,-39.35,-39.47,0,*63
1486314459.56,4758,11.0,72272.3,-9.77,-39.53,-39.47,0,*62
1486314460.75,4759,11.0,72274.5,-9.75,-39.47,-39.47,0,*64
1486314461.98,4760,11.0,72272.0,-9.75,-39.59,-39.47,0,*61
1486314463.25,4761,11.0,72272.3,-9.77,-39.53,-39.53,0,*6D
1486314464.47,4762,11.0,72272.5,-9.75,-39.59,-39.47,0,*63
1486314465.7,4763,11.0,72274.3,-9.75,-39.59,-39.47,0,*62
1486314466.97,4764,11.0,72272.0,-9.77,-39.53,-39.53,0,*68
1486314468.24,4765,11.0,72276.0,-9.77,-39.71,-39.53,0,*69
1486314469.47,4766,11.0,72274.5,-9.75,-39.65,-39.59,0,*67
1486314470.71,4767,11.0,72276.8,-9.77,-39.65,-39.65,0,*6B
1486314471.97,4768,11.0,72274.8,-9.77,-39.71,-39.65,0,*61
1486314473.23,4769,11.0,72278.3,-9.77,-39.71,-39.65,0,*60
1486314474.47,4770,11.0,72278.3,-9.77,-39.65,-39.65,0,*6D
1486314475.7,4771,11.0,72272.5,-9.77,-39.65,-39.65,0,*6C
1486314476.9,4772,11.0,72274.8,-9.79,-39.85,-39.85,0,*61
1486314478.16,4773,11.0,72272.5,-9.77,-39.85,-39.71,0,*65
1486314479.36,4774,11.0,72270.5,-9.79,-39.85,-39.85,0,*67
1486314480.62,4775,11.0,72270.0,-9.77,-39.91,-39.71,0,*66
1486314481.85,4776,11.0,72270.3,-9.79,-39.85,-39.71,0,*6E
1486314483.11,4777,11.0,72274.8,-9.77,-39.91,-39.71,0,*64
1486314484.34,4778,11.0,72270.3,-9.79,-39.71,-39.65,0,*6E
1486314485.6,4779,11.0,72268.5,-9.77,-39.65,-39.71,0,*61
1486314486.85,4780,11.0,72278.5,-9.79,-39.71,-39.71,0,*6C
1486314488.05,4781,11.0,72270.8,-9.79,-39.65,-39.85,0,*63
1486314489.31,4782,11.0,72264.8,-9.81,-39.79,-39.71,0,*61
1486314490.56,4783,11.0,72270.3,-9.79,-39.71,-39.53,0,*6F
1486314491.78,4784,11.0,72270.8,-9.79,-39.53,-39.65,0,*6D
1486314493.03,4785,11.0,72268.0,-9.77,-39.47,-39.53,0,*62
1486314494.26,4786,11.0,72270.0,-9.79,-39.53,-39.65,0,*6F
1486314495.5,4787,11.0,72268.5,-9.79,-39.53,-39.53,0,*6B
1486314496.72,4788,11.0,72270.3,-9.79,-39.47,-39.53,0,*61
1486314497.91,4789,11.0,72270.0,-9.79,-39.47,-39.47,0,*65
1486314499.1,4790,11.0,72268.3,-9.79,-39.35,-39.47,0,*68
1486314500.3,4791,11.0,72270.3,-9.79,-39.35,-39.47,0,*69
1486314501.49,4792,11.0,72268.3,-9.79,-39.35,-39.47,0,*6A
1486314502.7,4793,11.0,72270.0,-9.79,-39.29,-39.35,0,*63
1486314503.95,4794,11.0,72266.0,-9.79,-39.29,-39.29,0,*69
1486314505.19,4795,11.0,72268.0,-9.77,-38.97,-39.15,0,*6D
1486314506.42,4796,11.0,72264.0,-9.77,-38.97,-39.09,0,*63
1486314507.61,4797,11.0,72260.5,-9.79,-38.97,-38.73,0,*60
1486314508.86,4798,11.0,72266.8,-9.77,-38.91,-38.73,0,*67
1486314510.08,4799,11.0,72262.8,-9.79,-38.91,-38.97,0,*62
1486314511.33,4800,11.0,72268.0,-9.77,-38.91,-38.97,0,*63
1486314512.55,4801,11.0,72268.8,-9.79,-38.91,-38.73,0,*66